period_start,C,m1,H,J0,J1,J2,J3,J4,J5,JA,JB,JC,JD,JJ,JK,JN,#
2017-02-08 00:01:24,0.20,2.85,0.00,22.22,25.42,29.14,14.88,50.85,1038.13,2036.80,2585.02,2384.99,2707.92,600.17,610.38,13.19,0000 0000 0000 0000 000000
2017-02-08 00:06:25,0.16,2.85,0.00,22.24,25.44,29.16,14.83,50.91,1038.13,2036.33,2581.96,2382.64,2705.19,599.68,609.82,13.24,0000 0000 0000 0000 000000
2017-02-08 00:11:26,0.19,2.86,0.00,22.25,25.47,29.20,14.85,50.90,1038.14,2036.11,2579.02,2380.40,2702.60,599.71,609.90,13.29,0000 0000 0000 0000 000000
2017-02-08 00:16:28,0.22,2.87,0.00,22.29,25.49,29.22,14.85,50.77,1038.13,2036.04,2575.99,2378.09,2699.96,599.96,610.05,13.34,0000 0000 0000 0000 000000
2017-02-08 00:21:29,0.22,2.88,0.00,22.31,25.51,29.23,14.86,51.04,1038.12,2036.00,2572.80,2375.64,2697.13,599.89,610.02,13.39,0000 0000 0000 0000 000000
2017-02-08 00:26:30,0.23,2.90,0.00,22.32,25.54,29.29,14.91,50.98,1038.10,2036.00,2569.61,2373.20,2694.31,600.12,610.05,13.44,0000 0000 0000 0000 000000
2017-02-08 00:31:32,0.22,2.91,0.00,22.34,25.56,29.30,14.82,51.08,1038.10,2036.00,2566.52,2370.79,2691.52,599.87,609.85,13.49,0000 0000 0000 0000 000000
2017-02-08 00:36:33,0.23,2.92,0.00,22.34,25.58,29.30,14.91,51.08,1038.09,2035.99,2563.39,2368.37,2688.77,600.00,609.89,13.54,0000 0000 0000 0000 000000
2017-02-08 00:41:34,0.22,2.93,0.00,22.38,25.61,29.37,14.90,51.15,1038.07,2035.99,2560.28,2366.12,2686.05,600.16,609.96,13.59,0000 0000 0000 0000 000000
2017-02-08 00:46:35,0.21,2.94,0.00,22.38,25.63,29.37,14.94,51.22,1037.86,2035.92,2557.37,2363.75,2683.28,600.01,609.72,13.64,0000 0000 0000 0000 000000
2017-02-08 00:51:37,0.19,2.95,0.00,22.37,25.65,29.38,14.89,51.29,1037.65,2035.74,2554.39,2361.45,2680.66,600.44,610.10,13.69,0000 0000 0000 0000 000000
2017-02-08 00:56:38,0.18,2.96,0.00,22.39,25.67,29.41,14.92,51.47,1037.61,2035.36,2551.35,2359.17,2677.93,600.20,609.82,13.74,0000 0000 0000 0000 000000
2017-02-08 01:01:39,0.21,2.97,0.00,22.40,25.70,29.42,14.83,51.47,1037.60,2035.08,2548.18,2356.70,2675.12,599.91,609.43,13.79,0000 0000 0000 0000 000000
2017-02-08 01:06:40,0.22,2.98,0.00,22.39,25.71,29.43,14.83,51.37,1037.61,2035.06,2545.21,2354.35,2672.43,599.76,609.29,13.84,0000 0000 0000 0000 000000
2017-02-08 01:11:42,0.20,3.00,0.00,22.41,25.73,29.45,14.88,51.38,1037.61,2035.02,2542.31,2352.11,2669.85,600.13,609.74,13.89,0000 0000 0000 0000 000000
2017-02-08 01:16:43,0.20,3.01,0.00,22.42,25.76,29.50,14.87,51.29,1037.59,2035.00,2539.49,2349.98,2667.39,599.89,609.42,13.94,0000 0000 0000 0000 000000
2017-02-08 01:21:44,0.22,3.02,0.00,22.41,25.77,29.50,14.88,51.15,1037.59,2035.00,2536.53,2347.70,2664.79,600.09,609.66,13.99,0000 0000 0000 0000 000000
2017-02-08 01:26:45,0.21,3.03,0.00,22.43,25.80,29.51,14.88,51.01,1037.62,2035.00,2533.68,2345.50,2662.26,599.77,609.43,14.04,0000 0000 0000 0000 000000
2017-02-08 01:31:46,0.21,3.04,0.00,22.46,25.81,29.54,14.96,51.08,1037.63,2034.99,2530.83,2343.33,2659.68,600.45,609.96,14.09,0000 0000 0000 0000 000000
2017-02-08 01:36:47,0.20,3.05,0.00,22.47,25.83,29.55,14.93,51.08,1037.76,2034.99,2528.11,2341.22,2657.25,600.33,609.82,14.14,0000 0000 0000 0000 000000
2017-02-08 01:41:49,0.20,3.06,0.00,22.51,25.85,29.52,14.97,51.07,1037.88,2034.98,2525.32,2339.16,2654.93,600.54,610.01,14.19,0000 0000 0000 0000 000000
2017-02-08 01:46:50,0.20,3.07,0.00,22.53,25.87,29.55,14.83,51.08,1037.73,2034.94,2522.55,2337.03,2652.44,599.83,609.29,14.24,0000 0000 0000 0000 000000
2017-02-08 01:51:51,0.16,3.08,0.00,22.55,25.88,29.60,14.84,50.97,1037.61,2034.69,2519.85,2334.93,2650.02,600.03,609.26,14.29,0000 0000 0000 0000 000000
2017-02-08 01:56:53,0.17,3.09,0.00,22.58,25.90,29.58,14.81,50.97,1037.62,2034.37,2517.21,2332.92,2647.74,599.78,608.99,14.34,0000 0000 0000 0000 000000
2017-02-08 02:01:54,0.17,3.10,0.00,22.63,25.92,29.61,14.85,51.08,1037.50,2034.14,2514.54,2330.92,2645.38,599.81,608.85,14.40,0000 0000 0000 0000 000000
2017-02-08 02:06:55,0.20,3.11,0.00,22.62,25.95,29.61,14.86,51.18,1037.14,2034.03,2511.79,2328.72,2642.87,599.95,608.83,14.45,0000 0000 0000 0000 000000
2017-02-08 02:11:56,0.22,3.12,0.00,22.62,25.96,29.65,14.81,51.36,1036.80,2034.02,2508.96,2326.46,2640.34,599.97,608.62,14.50,0000 0000 0000 0000 000000
2017-02-08 02:16:58,0.22,3.13,0.00,22.64,25.98,29.66,14.88,51.58,1036.91,2034.00,2506.01,2324.18,2637.63,600.15,608.81,14.55,0000 0000 0000 0000 000000
2017-02-08 02:21:59,0.21,3.14,0.00,22.63,26.00,29.68,14.86,51.56,1036.71,2034.00,2503.16,2321.98,2635.14,599.83,608.39,14.60,0000 0000 0000 0000 000000
2017-02-08 02:27:00,0.21,3.15,0.00,22.65,26.02,29.74,14.91,51.54,1036.84,2034.00,2500.42,2319.85,2632.67,600.27,608.94,14.65,0000 0000 0000 0000 000000
2017-02-08 02:32:01,0.22,3.16,0.00,22.66,26.03,29.75,14.83,51.52,1037.12,2033.99,2497.56,2317.58,2630.10,599.84,608.58,14.70,0000 0000 0000 0000 000000
2017-02-08 02:37:02,0.19,3.17,0.00,22.66,26.05,29.73,14.91,51.44,1037.31,2033.99,2494.96,2315.45,2627.58,600.56,609.46,14.75,0000 0000 0000 0000 000000
2017-02-08 02:42:04,0.20,3.18,0.00,22.70,26.07,29.75,14.90,51.38,1037.61,2033.98,2492.38,2313.41,2625.21,599.88,608.78,14.80,0000 0000 0000 0000 000000
2017-02-08 02:47:05,0.19,3.19,0.00,22.74,26.08,29.76,14.89,51.14,1037.66,2033.96,2489.75,2311.42,2623.03,600.29,609.01,14.85,0000 0000 0000 0000 000000
2017-02-08 02:52:06,0.19,3.20,0.00,22.78,26.10,29.76,14.90,51.07,1037.84,2033.90,2487.11,2309.43,2620.82,600.06,609.04,14.90,0000 0000 0000 0000 000000
2017-02-08 02:57:07,0.18,3.21,0.00,22.83,26.12,29.78,14.77,51.23,1037.96,2033.85,2484.62,2307.57,2618.68,599.75,608.64,14.95,0000 0000 0000 0000 000000
2017-02-08 03:02:08,0.17,3.22,0.00,22.85,26.14,29.77,14.82,51.37,1037.86,2033.55,2481.99,2305.54,2616.34,599.55,608.36,15.00,0000 0000 0000 0000 000000
2017-02-08 03:07:10,0.16,3.23,0.00,22.90,26.16,29.81,14.80,51.26,1038.02,2033.20,2479.40,2303.56,2614.04,599.85,608.66,15.05,0000 0000 0000 0000 000000
2017-02-08 03:12:11,0.18,3.24,0.00,22.95,26.17,29.83,14.85,51.39,1038.05,2033.06,2476.86,2301.72,2611.81,599.79,608.48,15.10,0000 0000 0000 0000 000000
2017-02-08 03:17:13,0.19,3.24,0.00,22.97,26.20,29.84,14.84,51.19,1037.96,2033.02,2474.37,2299.81,2609.61,600.43,609.05,15.15,0000 0000 0000 0000 000000
2017-02-08 03:22:14,0.19,3.25,0.00,22.98,26.22,29.89,14.86,51.34,1038.07,2033.01,2471.83,2297.88,2607.37,599.95,608.70,15.20,0000 0000 0000 0000 000000
2017-02-08 03:27:16,0.21,3.27,0.00,23.00,26.25,29.91,14.87,51.25,1038.10,2033.00,2469.13,2295.74,2604.94,600.23,608.81,15.25,0000 0000 0000 0000 000000
2017-02-08 03:32:17,0.21,3.28,0.00,23.03,26.27,29.93,14.88,51.23,1038.10,2033.00,2466.36,2293.62,2602.43,600.35,608.92,15.30,0000 0000 0000 0000 000000
2017-02-08 03:37:18,0.20,3.29,0.00,23.17,26.30,29.95,14.82,51.33,1038.10,2032.99,2463.69,2291.54,2600.06,599.83,608.24,15.35,0000 0000 0000 0000 000000
2017-02-08 03:42:19,0.21,3.30,0.00,23.32,26.33,30.01,14.91,51.33,1038.10,2032.98,2460.94,2289.40,2597.60,600.25,608.12,15.40,0000 0000 0000 0000 000000
2017-02-08 03:47:20,0.19,3.31,0.00,23.36,26.36,30.03,14.76,51.37,1038.10,2032.86,2458.27,2287.33,2595.20,600.10,608.10,15.45,0000 0000 0000 0000 000000
2017-02-08 03:52:22,0.15,3.32,0.00,23.34,26.39,30.06,14.83,51.30,1038.08,2032.47,2455.59,2285.29,2592.84,600.09,608.01,15.50,0000 0000 0000 0000 000000
2017-02-08 03:57:23,0.20,3.32,0.00,23.38,26.42,30.12,14.89,51.26,1038.05,2032.08,2452.83,2283.16,2590.35,600.34,608.15,15.55,0000 0000 0000 0000 000000
2017-02-08 04:02:25,0.21,3.34,0.00,23.36,26.46,30.14,14.89,51.34,1038.06,2032.03,2450.06,2281.02,2587.87,600.32,608.05,15.60,0000 0000 0000 0000 000000
2017-02-08 04:07:26,0.22,3.35,0.00,23.37,26.48,30.17,14.81,51.42,1038.10,2032.00,2447.17,2278.98,2585.34,600.00,607.83,15.65,0000 0000 0000 0000 000000
2017-02-08 04:12:27,0.22,3.36,0.00,23.44,26.51,30.20,14.81,51.37,1038.10,2032.00,2444.30,2276.84,2582.86,599.97,607.62,15.70,0000 0000 0000 0000 000000
2017-02-08 04:17:29,0.23,3.37,0.00,23.43,26.53,30.22,14.68,51.32,1038.10,2032.00,2441.37,2274.52,2580.22,599.54,607.36,15.75,0000 0000 0000 0000 000000
2017-02-08 04:22:30,0.22,3.38,0.00,23.40,26.56,30.26,14.83,51.41,1038.10,2031.99,2438.47,2272.29,2577.56,600.03,607.78,15.80,0000 0000 0000 0000 000000
2017-02-08 04:27:31,0.24,3.39,0.00,23.53,26.58,30.27,14.80,51.33,1038.09,2031.96,2435.50,2269.94,2574.87,600.12,607.67,15.85,0000 0000 0000 0000 000000
2017-02-08 04:32:32,0.19,3.40,0.00,23.57,26.61,30.28,14.92,51.16,1038.07,2031.73,2432.55,2267.68,2572.23,600.22,607.66,15.90,0000 0000 0000 0000 000000
2017-02-08 04:37:34,0.16,3.41,0.00,23.58,26.64,30.32,14.87,51.09,1038.08,2031.19,2429.64,2265.42,2569.65,600.28,607.75,15.95,0000 0000 0000 0000 000000
2017-02-08 04:42:35,0.22,3.42,0.00,23.58,26.66,30.34,14.74,51.14,1038.10,2031.01,2426.74,2263.24,2567.08,599.72,607.14,16.00,0000 0000 0000 0000 000000
2017-02-08 04:47:36,0.23,3.43,0.00,23.56,26.69,30.35,14.71,51.01,1038.09,2031.00,2423.76,2260.98,2564.45,599.69,607.26,16.05,0000 0000 0000 0000 000000
2017-02-08 04:52:38,0.23,3.45,0.00,23.58,26.71,30.36,14.91,51.01,1038.04,2030.99,2420.83,2258.71,2561.88,600.29,607.64,16.10,0000 0000 0000 0000 000000
2017-02-08 04:57:39,0.23,3.46,0.00,23.62,26.72,30.38,14.86,51.10,1038.06,2030.99,2417.86,2256.44,2559.32,600.14,607.51,16.15,0000 0000 0000 0000 000000
2017-02-08 05:02:40,0.24,3.47,0.00,23.62,26.75,30.38,14.66,50.98,1037.76,2030.98,2414.87,2254.15,2556.81,599.88,607.10,16.20,0000 0000 0000 0000 000000
2017-02-08 05:07:42,0.24,3.48,0.00,23.59,26.76,30.41,14.77,51.14,1037.62,2030.95,2411.81,2251.77,2554.11,600.01,607.15,16.25,0000 0000 0000 0000 000000
2017-02-08 05:12:43,0.22,3.50,0.00,23.61,26.77,30.44,14.84,51.17,1037.61,2030.82,2408.79,2249.46,2551.45,600.08,607.17,16.30,0000 0000 0000 0000 000000
2017-02-08 05:17:44,0.22,3.51,0.00,23.63,26.77,30.41,14.80,51.34,1037.60,2030.68,2405.89,2247.26,2548.85,599.76,606.91,16.35,0000 0000 0000 0000 000000
2017-02-08 05:22:46,0.21,3.51,0.00,23.58,26.79,30.41,14.74,51.37,1037.50,2030.43,2402.90,2245.01,2546.23,599.72,606.78,16.40,0000 0000 0000 0000 000000
2017-02-08 05:27:47,0.24,3.53,0.00,23.60,26.80,30.41,14.83,51.38,1037.58,2030.36,2399.94,2242.68,2543.60,599.92,607.01,16.45,0000 0000 0000 0000 000000
2017-02-08 05:32:48,0.20,3.54,0.00,23.59,26.80,30.42,14.85,51.29,1037.61,2030.13,2397.00,2240.50,2541.01,600.20,607.37,16.50,0000 0000 0000 0000 000000
2017-02-08 05:37:50,0.24,3.55,0.00,23.54,26.80,30.43,14.79,51.29,1037.66,2030.09,2393.95,2238.29,2538.32,599.65,606.91,16.55,0000 0000 0000 0000 000000
2017-02-08 05:42:51,0.25,3.56,0.00,23.57,26.80,30.40,14.73,51.03,1037.84,2030.10,2390.96,2235.89,2535.57,599.68,607.08,16.60,0000 0000 0000 0000 000000
2017-02-08 05:47:52,0.22,3.57,0.00,23.56,26.80,30.40,14.86,50.97,1038.09,2030.04,2388.08,2233.73,2533.02,600.00,607.47,16.65,0000 0000 0000 0000 000000
2017-02-08 05:52:54,0.21,3.59,0.00,23.55,26.80,30.42,14.77,50.87,1038.08,2030.03,2385.33,2231.67,2530.62,599.89,607.37,16.70,0000 0000 0000 0000 000000
2017-02-08 05:57:55,0.22,3.60,0.00,23.57,26.80,30.40,14.79,50.91,1037.92,2030.03,2382.59,2229.59,2528.26,599.84,607.44,16.75,0000 0000 0000 0000 000000
2017-02-08 06:02:57,0.22,3.61,0.00,23.59,26.80,30.40,14.83,51.02,1037.86,2030.03,2379.78,2227.52,2525.75,599.95,607.22,16.80,0000 0000 0000 0000 000000
2017-02-08 06:07:58,0.24,3.62,0.00,23.58,26.80,30.40,14.82,51.21,1037.67,2030.00,2376.88,2225.30,2523.16,600.14,607.34,16.85,0000 0000 0000 0000 000000
2017-02-08 06:12:59,0.23,3.63,0.00,23.59,26.80,30.40,14.87,50.99,1037.80,2030.01,2373.93,2223.08,2520.62,600.09,607.33,16.90,0000 0000 0000 0000 000000
2017-02-08 06:18:00,0.23,3.64,0.00,23.58,26.80,30.41,14.81,50.96,1038.03,2030.00,2371.07,2220.89,2518.09,599.82,607.23,16.95,0000 0000 0000 0000 000000
2017-02-08 06:23:01,0.22,3.66,0.00,23.57,26.79,30.40,14.83,50.91,1037.93,2030.00,2368.28,2218.83,2515.64,599.96,607.35,17.00,0000 0000 0000 0000 000000
2017-02-08 06:28:02,0.21,3.67,0.00,23.58,26.79,30.41,14.84,50.79,1037.97,2030.00,2365.70,2216.75,2513.25,599.98,607.35,17.05,0000 0000 0000 0000 000000
2017-02-08 06:33:03,0.22,3.68,0.00,23.55,26.78,30.40,14.77,50.83,1038.02,2030.00,2362.94,2214.67,2510.87,599.88,607.32,17.10,0000 0000 0000 0000 000000
2017-02-08 06:38:04,0.23,3.69,0.00,23.58,26.77,30.40,14.79,51.01,1037.90,2030.00,2360.13,2212.60,2508.40,600.01,607.32,17.15,0000 0000 0000 0000 000000
2017-02-08 06:43:05,0.23,3.70,0.00,23.55,26.77,30.40,14.74,51.32,1037.62,2030.00,2357.29,2210.50,2505.92,599.93,607.06,17.20,0000 0000 0000 0000 000000
2017-02-08 06:48:06,0.26,3.71,0.00,23.58,26.77,30.39,14.83,51.27,1037.54,2030.00,2354.30,2208.19,2503.25,599.98,607.13,17.26,0000 0000 0000 0000 000000
2017-02-08 06:53:08,0.24,3.73,0.00,23.54,26.77,30.39,14.78,51.38,1037.46,2030.00,2351.36,2205.84,2500.60,600.01,607.16,17.31,0000 0000 0000 0000 000000
2017-02-08 06:58:09,0.23,3.74,0.00,23.55,26.77,30.38,14.79,51.33,1037.20,2030.00,2348.53,2203.69,2498.15,599.87,606.93,17.36,0000 0000 0000 0000 000000
2017-02-08 07:03:11,0.22,3.75,0.00,23.57,26.77,30.36,14.75,51.53,1037.14,2030.00,2345.71,2201.59,2495.75,599.67,606.58,17.41,0000 0000 0000 0000 000000
2017-02-08 07:08:12,0.24,3.76,0.00,23.57,26.77,30.38,14.80,51.43,1037.13,2030.00,2342.88,2199.39,2493.29,600.14,607.04,17.46,0000 0000 0000 0000 000000
2017-02-08 07:13:13,0.22,3.77,0.00,23.55,26.77,30.39,14.77,51.21,1037.14,2030.00,2340.11,2197.25,2490.81,599.61,606.54,17.51,0000 0000 0000 0000 000000
2017-02-08 07:18:14,0.21,3.78,0.00,23.51,26.77,30.39,14.82,51.25,1037.14,2030.00,2337.45,2195.30,2488.51,599.93,606.86,17.56,0000 0000 0000 0000 000000
2017-02-08 07:23:16,0.23,3.79,0.00,23.54,26.77,30.38,14.83,51.37,1037.13,2030.00,2334.70,2193.24,2486.14,599.80,606.76,17.61,0000 0000 0000 0000 000000
2017-02-08 07:28:17,0.22,3.81,0.00,23.52,26.77,30.39,14.73,51.33,1037.11,2030.00,2332.01,2191.28,2483.78,599.76,606.74,17.66,0000 0000 0000 0000 000000
2017-02-08 07:33:18,0.22,3.82,0.00,23.51,26.77,30.38,14.75,51.32,1037.13,2030.00,2329.29,2189.23,2481.47,599.72,606.64,17.71,0000 0000 0000 0000 000000
2017-02-08 07:38:20,0.22,3.83,0.00,23.48,26.77,30.39,14.81,51.38,1037.33,2030.00,2326.58,2187.20,2479.14,600.17,607.38,17.76,0000 0000 0000 0000 000000
2017-02-08 07:43:21,0.22,3.84,0.00,23.44,26.77,30.38,14.74,51.23,1037.61,2029.99,2323.87,2185.21,2476.82,599.81,607.15,17.81,0000 0000 0000 0000 000000
2017-02-08 07:48:23,0.22,3.85,0.00,23.46,26.76,30.35,14.82,51.28,1037.86,2029.99,2321.21,2183.24,2474.52,599.85,607.40,17.86,0000 0000 0000 0000 000000
2017-02-08 07:53:24,0.22,3.86,0.00,23.43,26.75,30.35,14.83,51.26,1038.10,2029.99,2318.47,2181.23,2472.18,599.71,607.49,17.91,0000 0000 0000 0000 000000
2017-02-08 07:58:25,0.23,3.87,0.00,23.45,26.75,30.33,14.90,51.33,1038.10,2029.99,2315.68,2179.20,2469.78,600.03,607.78,17.96,0000 0000 0000 0000 000000
2017-02-08 08:03:26,0.22,3.89,0.00,23.45,26.75,30.33,14.85,51.08,1038.14,2029.99,2312.95,2177.19,2467.46,599.83,607.60,18.01,0000 0000 0000 0000 000000
2017-02-08 08:08:27,0.22,3.90,0.00,23.46,26.75,30.34,14.87,50.99,1038.54,2029.99,2310.21,2175.19,2465.16,600.14,608.08,18.06,0000 0000 0000 0000 000000
2017-02-08 08:13:28,0.22,3.91,0.00,23.45,26.75,30.36,14.86,51.07,1038.58,2029.99,2307.43,2173.28,2462.85,599.99,608.07,18.11,0000 0000 0000 0000 000000
2017-02-08 08:18:30,0.23,3.92,0.00,23.39,26.75,30.36,14.83,51.09,1038.59,2029.99,2304.67,2171.26,2460.41,600.19,608.34,18.16,0000 0000 0000 0000 000000
2017-02-08 08:23:31,0.24,3.93,0.00,23.34,26.74,30.37,14.82,51.08,1038.57,2029.99,2301.96,2169.20,2458.08,600.15,608.33,18.21,0000 0000 0000 0000 000000
2017-02-08 08:28:32,0.22,3.94,0.00,23.40,26.72,30.28,14.71,51.01,1038.59,2029.99,2299.21,2167.18,2455.72,599.70,607.80,18.26,0000 0000 0000 0000 000000
2017-02-08 08:33:33,0.23,3.95,0.00,23.49,26.72,30.31,14.78,51.03,1038.57,2029.99,2296.40,2165.07,2453.29,599.90,607.80,18.31,0000 0000 0000 0000 000000
2017-02-08 08:38:34,0.24,3.97,0.00,23.47,26.72,30.34,14.89,51.11,1038.56,2029.99,2293.58,2163.00,2450.89,600.18,608.21,18.36,0000 0000 0000 0000 000000
2017-02-08 08:43:36,0.23,3.98,0.00,23.46,26.72,30.33,14.85,51.13,1038.52,2029.99,2290.76,2160.91,2448.47,599.95,608.01,18.41,0000 0000 0000 0000 000000
2017-02-08 08:48:37,0.25,3.99,0.00,23.44,26.72,30.34,14.79,51.19,1038.46,2029.99,2287.87,2158.62,2445.87,599.75,607.72,18.46,0000 0000 0000 0000 000000
2017-02-08 08:53:39,0.23,4.00,0.00,23.47,26.72,30.33,14.82,51.08,1038.32,2029.99,2284.99,2156.57,2443.46,599.97,607.84,18.51,0000 0000 0000 0000 000000
2017-02-08 08:58:40,0.23,4.01,0.00,23.51,26.72,30.36,14.86,51.14,1038.33,2029.99,2282.18,2154.54,2441.08,600.01,607.77,18.56,0000 0000 0000 0000 000000
2017-02-08 09:03:41,0.23,4.03,0.00,23.44,26.72,30.37,14.88,51.11,1038.50,2029.99,2279.38,2152.48,2438.65,600.03,607.91,18.61,0000 0000 0000 0000 000000
2017-02-08 09:08:42,0.27,4.04,0.00,23.45,26.72,30.36,14.76,51.07,1038.59,2029.99,2276.34,2150.11,2436.04,599.73,607.66,18.66,0000 0000 0000 0000 000000
2017-02-08 09:13:44,0.31,4.06,0.00,23.50,26.72,30.35,14.84,51.17,1038.57,2029.99,2272.85,2147.08,2432.79,600.01,607.83,18.71,0000 0000 0000 0000 000000
2017-02-08 09:18:45,0.24,4.07,0.00,23.47,26.72,30.36,14.70,51.04,1038.57,2029.99,2270.05,2145.04,2430.44,599.69,607.68,18.76,0000 0000 0000 0000 000000
2017-02-08 09:23:46,0.25,4.08,0.00,23.39,26.72,30.41,14.83,51.10,1038.59,2029.99,2267.15,2142.92,2428.03,599.99,608.21,18.81,0000 0000 0000 0000 000000
2017-02-08 09:28:48,0.24,4.09,0.00,23.45,26.72,30.37,14.79,51.04,1038.61,2029.99,2264.29,2140.80,2425.54,599.97,607.98,18.86,0000 0000 0000 0000 000000
2017-02-08 09:33:49,0.23,4.11,0.00,23.53,26.72,30.34,14.88,50.99,1038.64,2029.99,2261.53,2138.75,2423.22,600.20,608.06,18.91,0000 0000 0000 0000 000000
2017-02-08 09:38:51,0.24,4.12,0.00,23.51,26.72,30.35,14.79,50.95,1038.60,2029.99,2258.70,2136.68,2420.76,599.85,607.84,18.96,0000 0000 0000 0000 000000
2017-02-08 09:43:52,0.24,4.13,0.00,23.54,26.73,30.36,14.83,51.13,1038.59,2029.99,2255.81,2134.57,2418.30,599.95,607.69,19.01,0000 0000 0000 0000 000000
2017-02-08 09:48:54,0.25,4.14,0.00,23.55,26.74,30.36,14.78,51.02,1038.59,2029.99,2252.87,2132.40,2415.78,599.76,607.54,19.06,0000 0000 0000 0000 000000
2017-02-08 09:53:55,0.26,4.16,0.00,23.50,26.74,30.38,14.82,50.96,1038.59,2029.99,2249.84,2130.10,2413.18,599.94,607.86,19.11,0000 0000 0000 0000 000000
2017-02-08 09:58:56,0.25,4.17,0.00,23.51,26.75,30.38,14.85,50.98,1038.59,2029.99,2246.91,2127.94,2410.67,600.09,608.04,19.16,0000 0000 0000 0000 000000
2017-02-08 10:03:57,0.24,4.18,0.00,23.52,26.75,30.38,14.76,51.13,1038.59,2029.99,2244.11,2125.88,2408.25,599.83,607.68,19.21,0000 0000 0000 0000 000000
2017-02-08 10:08:58,0.25,4.19,0.00,23.53,26.75,30.40,14.76,51.07,1038.59,2029.99,2241.21,2123.79,2405.85,599.68,607.50,19.26,0000 0000 0000 0000 000000
2017-02-08 10:14:00,0.25,4.21,0.00,23.55,26.75,30.37,14.73,51.08,1038.59,2029.99,2238.43,2121.64,2403.31,599.74,607.53,19.31,0000 0000 0000 0000 000000
2017-02-08 10:19:01,0.25,4.22,0.00,23.57,26.75,30.38,14.90,51.17,1038.59,2029.99,2235.46,2119.44,2400.75,600.19,607.88,19.36,0000 0000 0000 0000 000000
2017-02-08 10:24:02,0.26,4.23,0.00,23.58,26.75,30.38,14.83,51.17,1038.56,2029.98,2232.46,2117.23,2398.16,600.09,607.82,19.41,0000 0000 0000 0000 000000
2017-02-08 10:29:04,0.25,4.25,0.00,23.58,26.75,30.39,14.75,51.16,1038.43,2029.99,2229.51,2115.09,2395.63,599.70,607.38,19.46,0000 0000 0000 0000 000000
2017-02-08 10:34:05,0.25,4.26,0.00,23.51,26.75,30.40,14.87,51.20,1038.30,2029.98,2226.65,2112.99,2393.17,600.21,607.82,19.51,0000 0000 0000 0000 000000
2017-02-08 10:39:07,0.26,4.27,0.00,23.54,26.75,30.38,14.80,51.08,1038.19,2029.99,2223.61,2110.84,2390.60,600.05,607.45,19.56,0000 0000 0000 0000 000000
2017-02-08 10:44:08,0.26,4.28,0.00,23.55,26.75,30.38,14.81,51.14,1038.21,2029.98,2220.67,2108.67,2388.00,600.05,607.62,19.61,0000 0000 0000 0000 000000
2017-02-08 10:49:10,0.26,4.30,0.00,23.57,26.75,30.38,14.77,51.10,1038.39,2029.98,2217.68,2106.41,2385.39,599.82,607.38,19.66,0000 0000 0000 0000 000000
2017-02-08 10:54:11,0.25,4.31,0.00,23.60,26.75,30.38,14.79,51.12,1038.52,2029.99,2214.79,2104.28,2382.91,599.99,607.64,19.71,0000 0000 0000 0000 000000
2017-02-08 10:59:12,0.25,4.32,0.00,23.58,26.75,30.39,14.75,51.04,1038.51,2029.97,2211.93,2102.16,2380.44,599.84,607.56,19.76,0000 0000 0000 0000 000000
2017-02-08 11:04:13,0.25,4.34,0.00,23.58,26.75,30.39,14.78,51.07,1038.54,2029.98,2209.07,2100.05,2377.97,600.03,607.64,19.81,0000 0000 0000 0000 000000
2017-02-08 11:09:15,0.25,4.35,0.00,23.61,26.75,30.38,14.82,51.04,1038.56,2029.98,2206.16,2097.98,2375.49,599.83,607.48,19.86,0000 0000 0000 0000 000000
2017-02-08 11:14:16,0.26,4.36,0.00,23.61,26.75,30.37,14.83,51.02,1038.36,2029.98,2203.27,2095.82,2373.06,599.97,607.42,19.91,0000 0000 0000 0000 000000
2017-02-08 11:19:18,0.25,4.38,0.00,23.60,26.75,30.37,14.83,51.17,1038.11,2029.98,2200.35,2093.68,2370.52,600.02,607.44,19.96,0000 0000 0000 0000 000000
2017-02-08 11:24:19,0.26,4.39,0.00,23.61,26.75,30.37,14.79,51.05,1038.11,2029.97,2197.39,2091.47,2368.09,599.78,607.22,20.01,0000 0000 0000 0000 000000
2017-02-08 11:29:20,0.28,4.40,0.00,23.62,26.75,30.39,14.77,51.09,1038.11,2029.98,2194.26,2089.24,2365.60,600.17,607.41,20.06,0000 0000 0000 0000 000000
2017-02-08 11:34:22,0.28,4.42,0.00,23.62,26.75,30.40,14.87,51.18,1038.10,2029.97,2191.13,2086.96,2362.98,600.07,607.38,20.11,0000 0000 0000 0000 000000
2017-02-08 11:39:23,0.28,4.43,0.00,23.64,26.75,30.39,14.82,51.13,1038.27,2029.97,2187.87,2084.59,2360.21,600.13,607.55,20.16,0000 0000 0000 0000 000000
2017-02-08 11:44:24,0.30,4.44,0.00,23.63,26.75,30.38,14.79,51.04,1038.23,2029.94,2184.62,2082.20,2357.44,599.87,607.34,20.21,0000 0000 0000 0000 000000
2017-02-08 11:49:26,0.29,4.46,0.00,23.63,26.75,30.38,14.83,51.08,1038.13,2029.93,2181.32,2079.75,2354.61,600.07,607.48,20.26,0000 0000 0000 0000 000000
2017-02-08 11:54:27,0.30,4.48,0.00,23.63,26.75,30.36,14.82,51.01,1038.13,2029.97,2178.00,2077.29,2351.76,600.27,607.70,20.31,0000 0000 0000 0000 000000
2017-02-08 11:59:28,0.30,4.49,0.00,23.66,26.75,30.36,14.86,51.23,1038.12,2029.97,2174.63,2074.80,2348.86,599.82,607.17,20.36,0000 0000 0000 0000 000000
2017-02-08 12:04:29,0.30,4.51,0.00,23.65,26.75,30.37,14.80,51.11,1038.11,2029.97,2171.27,2072.32,2345.97,599.95,607.26,20.41,0000 0000 0000 0000 000000
2017-02-08 12:09:30,0.31,4.52,0.00,23.65,26.75,30.37,14.81,51.07,1038.11,2029.94,2167.81,2069.78,2343.04,599.91,607.17,20.46,0000 0000 0000 0000 000000
2017-02-08 12:14:31,0.32,4.54,0.00,23.64,26.75,30.38,14.82,51.09,1038.10,2029.87,2164.13,2067.16,2339.91,599.89,607.25,20.51,0000 0000 0000 0000 000000
2017-02-08 12:19:33,0.31,4.55,0.00,23.64,26.75,30.37,14.75,51.16,1038.10,2029.82,2160.67,2064.55,2336.91,599.73,607.05,20.56,0000 0000 0000 0000 000000
2017-02-08 12:24:34,0.33,4.57,0.00,23.65,26.76,30.38,14.73,51.17,1038.09,2029.85,2157.23,2062.04,2333.89,599.89,607.18,20.61,0000 0000 0000 0000 000000
2017-02-08 12:29:35,0.30,4.58,0.00,23.67,26.76,30.37,14.90,51.10,1038.08,2029.77,2153.78,2059.44,2330.91,600.33,607.74,20.66,0000 0000 0000 0000 000000
2017-02-08 12:34:37,0.32,4.60,0.00,23.69,26.77,30.37,14.81,51.05,1037.91,2029.70,2150.33,2056.91,2327.93,600.19,607.33,20.71,0000 0000 0000 0000 000000
2017-02-08 12:39:38,0.31,4.62,0.00,23.71,26.77,30.37,14.79,51.08,1037.98,2029.77,2146.83,2054.40,2325.00,599.85,606.90,20.76,0000 0000 0000 0000 000000
2017-02-08 12:44:40,0.30,4.63,0.00,23.70,26.77,30.37,14.80,51.05,1038.08,2029.71,2143.37,2051.88,2322.11,599.84,606.99,20.81,0000 0000 0000 0000 000000
2017-02-08 12:49:41,0.32,4.65,0.00,23.72,26.77,30.37,14.85,51.03,1038.10,2029.49,2139.70,2049.19,2318.98,599.91,607.10,20.86,0000 0000 0000 0000 000000
2017-02-08 12:54:42,0.33,4.66,0.00,23.70,26.77,30.37,14.83,51.17,1038.10,2029.59,2136.23,2046.77,2316.01,600.28,607.46,20.91,0000 0000 0000 0000 000000